Regional Weather Roundup
Issued by NWS Northern Indiana

Home | Current Version | Previous Version | Text Only | Print | Product List | Glossary On
Versions: 1 2 3 4 5 6 7 8 9 10 11 12 13 14 15 16 17 18 19 20 21 22 23 24 25 26 27 28 29 30 31 32 33 34 35 36 37 38 39 40 41 42 43 44 45 46 47 48 49 50
068
ASUS43 KIWX 112310
RWRIWX

KIWX WEATHER ROUNDUP
NATIONAL WEATHER SERVICE NORTHERN INDIANA
600 PM EST THU FEB 11 2016

NOTE: "FAIR" INDICATES FEW OR NO CLOUDS BELOW 12,000 FEET WITH NO
SIGNIFICANT WEATHER AND/OR OBSTRUCTIONS TO VISIBILITY.

* THESE STATIONS ARE NOT UNDER NWS QUALITY CONTROL. THEY ALSO MAY NOT
  REPORT WEATHER SUCH AS PRECIPITATION OR FOG.

INZ001>027-120000-
NORTHERN INDIANA

CITY           SKY/WX    TMP DP  RH WIND       PRES   REMARKS
GARY*          CLEAR     23   5  46 CALM      30.30S
VALPARAISO     CLEAR     18   7  62 E5        30.29R WCI  11
MICHIGAN CITY* CLEAR     18   5  57 NW3       30.30S
LAPORTE*       CLEAR     19   7  61 W5        30.29S WCI  12
KNOX*          CLEAR     19   9  63 N5        30.29S WCI  13
SOUTH BEND     CLEAR     15   6  67 W6        30.28R WCI   6
ELKHART*       CLOUDY    19   9  63 W7        30.27S WCI  10
GOSHEN         MOCLDY    19   6  57 W5        30.26R WCI  12
MONTICELLO*    CLEAR     21  -2  35 W5        30.29S WCI  15
LOGANSPORT*    CLEAR     21   1  42 W6        30.30R WCI  14
ROCHESTER*     MOCLDY    23   5  46 NW6       30.28S WCI  16
WARSAW*        CLOUDY    21   9  58 NW6       30.27S WCI  14
ANGOLA*        CLOUDY    19  10  68 CALM      30.23R
FORT WAYNE     MOCLDY    21  10  62 W10       30.28R WCI  10
HUNTINGTON*    CLOUDY    20   4  50 W5        30.27S WCI  13
PERU/GRISSOM   PTCLDY    21   7  55 W6        30.27R WCI  13
MARION*        CLEAR     20   0  40 NW3       30.29R

$$
INZ028>050-120000-
CENTRAL INDIANA

CITY           SKY/WX    TMP DP  RH WIND       PRES   REMARKS
LAFAYETTE      CLEAR     21   5  50 NW3       30.30S
KOKOMO*        PTCLDY    21   7  53 W3        30.28S
MUNCIE*        PTCLDY    20   5  52 NW6       30.28S WCI  12
INDIANAPOLIS   PTCLDY    22   6  50 NW5       30.28R WCI  16

$$
MIZ043>046-050>051-056>058-064>065-071>073-077>080-120000-
SOUTHWEST LOWER MICHIGAN

CITY           SKY/WX    TMP DP  RH WIND       PRES   REMARKS
BATTLE CREEK   CLOUDY    19  11  70 W9        30.23R WCI   8
BENTON HARBOR  CLOUDY    20   8  60 W8        30.28R WCI  10
COLDWATER*     CLOUDY    19   8  64 W3        30.23R
HILLSDALE*     CLOUDY    19   5  54 W10       30.20S WCI   7
HOLLAND        CLOUDY    19   8  62 W12       30.26R WCI   7
GRAND RAPIDS   MOCLDY    20   8  60 W12       30.22S WCI   8
KALAMAZOO      CLEAR     18   8  65 W5        30.24R WCI  11
STURGIS*       CLOUDY    19   6  59 W6        30.24R WCI  10
THREE RIVERS*  CLOUDY    20   8  57 W10       30.25S WCI   9

$$
OHZ001>008-015>018-024>025-120000-
NORTHWEST OHIO

CITY           SKY/WX    TMP DP  RH WIND       PRES   REMARKS
DEFIANCE       MOCLDY    20   7  57 NW6       30.27S WCI  12
FINDLAY        CLOUDY    20   4  50 W7        30.26R WCI  11
TOLEDO EXPRESS MOCLDY    19   4  51 W6        30.25S WCI  11
TOLEDO METCALF CLOUDY    21   4  47 W12       30.26S WCI   9
LIMA           CLOUDY    20   7  57 W10       30.25S WCI   9

$$
AND FOR LAKE MICHIGAN COASTAL AND OPEN LAKE BUOY OBSERVATIONS

STATION/POSITION TEMP    WIND        PRES    VSBY  WAVE
                 AIR SEA DIR/SP/G                  HT/PER
                 (F)     (DEG/KT/KT) (MB)    (MI)  (FT/S)
CALUMET HARBOR    19                 1024.9F
MICHIGAN CITY     19     250/  7/  9   N/A
BURNS HARBOR      19      CALM  /  4 1026.4S
SAINT JOSEPH      20     250/  7/ 11 1025.4F

$$
&&




USA.gov is the U.S. government's official web portal to all federal, state and local government web resources and services.